Regional Weather Roundup
Issued by NWS

Home | Current Version | Previous Version | Graphics & Text | Print | Product List | Glossary On
Versions: 1 2 3 4 5 6 7 8 9 10 11 12 13 14 15 16 17 18 19 20 21 22 23 24 25 26 27 28 29 30 31 32 33 34 35 36 37 38 39 40 41 42 43 44 45 46 47 48 49 50
000
ASUS43 KLMK 300702
RWRKY
KENTUCKY REGIONAL WEATHER ROUNDUP
NATIONAL WEATHER SERVICE LOUISVILLE KY
300 AM EDT SUN AUG 30 2015

NOTE "FAIR" INDICATES FEW OR NO CLOUDS BELOW 12,000 FEET
WITH NO SIGNIFICANT WEATHER AND/OR OBSTRUCTIONS TO VISIBILITY.

KYZ001>023-026-027-061>063-070>075-300800-
WESTERN AND SOUTH CENTRAL KENTUCKY

CITY           SKY/WX    TMP DP  RH WIND       PRES   REMARKS
PADUCAH        CLOUDY    75  68  78 NW5       30.03F
HENDERSON      CLOUDY    72  68  88 W3        30.03S
OWENSBORO      CLOUDY    72  69  90 S6        30.05F
HOPKINSVILLE   MOCLDY    72  68  86 S6        30.06F
BOWLING GREEN  PTCLDY    71  67  87 S6        30.09S
GLASGOW        PTCLDY    68  68 100 CALM      30.11R
$$

KYZ024-025-028>034-038-045-046-053-300800-
NORTH CENTRAL KENTUCKY

CITY           SKY/WX    TMP DP  RH WIND       PRES   REMARKS
LOUISVILLE/SDF MOCLDY    74  67  78 S9        30.06F
LOUISVILLE/LOU PTCLDY    73  67  81 S5        30.07F
FORT KNOX      MOCLDY    70  66  88 S6        30.06F
$$

KYZ035>037-039>044-047>052-055>060-089>105-300800-
NORTHEAST KENTUCKY

CITY           SKY/WX    TMP DP  RH WIND       PRES   REMARKS
LEXINGTON      CLEAR     70  66  87 SW8       30.11S
COVINGTON      MOCLDY    68  65  90 S3        30.08F
FRANKFORT      PTCLDY    70  66  87 S6        30.09S
$$

KYZ054-064>069-076>088-106>120-300800-
SOUTHEAST KENTUCKY

CITY           SKY/WX    TMP DP  RH WIND       PRES   REMARKS
JACKSON        CLEAR     68  63  84 CALM      30.13F
LONDON         CLEAR     67  62  84 CALM      30.14S
SOMERSET       NOT AVBL
MIDDLESBORO    CLEAR     63  63  99 CALM      30.15S
MONTICELLO     MOSUNNY   66  66 100 CALM      30.15F FOG
$$



USA.gov is the U.S. government's official web portal to all federal, state and local government web resources and services.